Date String (YYYY-MM-DD hh:mm:ss) UTC,Instrument flags,Ambient pressure (hPa),Sample flow (lpm),Bypass flow (lpm),Sample temperature (°C),Ambient temperature (°C),ASC tube jacket temperature (°C),LED temperature (°C),Box temperature (°C),Sample RH (%),Span deviation,Mass concentration (μg/m³),Mass concentration (μg/m³),Mass concentration (μg/m³)
DateTimeUTC,F1_M11,P_M11,Q1_M11,Q2_M11,T1_M11,T2_M11,T3_M11,T4_M11,T5_M11,U1_M11,ZSPAN_M11,X0_M11,X2_M11,X1_M11
2021-09-27 18:00:00,,0826.5,4.99,0.00,29.2,26.0,00.0,38.2,30.6,12.6,0001.0,0017.99,0005.47,0004.26
2021-09-27 18:01:00,,0826.5,5.00,0.00,29.1,26.4,00.0,38.2,30.7,12.8,0000.7,0017.56,0005.41,0004.22
2021-09-27 18:02:00,,0826.5,5.00,0.00,29.1,26.7,00.0,38.2,30.8,13.1,0000.2,0017.90,0005.42,0004.22
2021-09-27 18:03:00,,0826.5,5.00,0.00,29.1,27.1,00.0,38.2,30.9,12.5,0000.4,0017.97,0005.40,0004.20
2021-09-27 18:04:00,,0826.5,5.00,0.00,29.2,27.5,00.0,38.2,31.0,12.3,0000.4,0018.54,0005.35,0004.17
2021-09-27 18:05:00,,0826.5,5.01,0.00,29.2,27.9,00.0,38.2,31.1,12.7,0001.0,0017.17,0005.26,0004.11
2021-09-27 18:06:00,,0826.5,4.99,0.00,29.3,28.2,00.0,38.2,31.2,12.9,0001.3,0016.48,0005.22,0004.08
2021-09-27 18:07:00,,0826.5,5.00,0.00,29.4,28.3,00.0,38.2,31.2,12.9,0000.5,0016.48,0005.19,0004.06
2021-09-27 18:08:00,,0826.5,5.01,0.00,29.3,27.0,00.0,38.3,30.9,12.8,0000.0,0016.94,0005.16,0004.04
2021-09-27 18:09:00,,0826.5,5.01,0.00,29.2,25.9,00.0,38.2,30.6,13.0,0000.0,0017.65,0005.13,0004.02
2021-09-27 18:10:00,,0826.5,5.00,0.00,29.1,26.2,00.0,38.2,30.6,12.8,0000.0,0018.15,0005.15,0004.03
2021-09-27 18:11:00,,0826.5,5.00,0.00,29.1,26.7,00.0,38.2,30.8,12.2,0000.0,0017.86,0005.12,0004.03
2021-09-27 18:12:00,,0826.5,4.99,0.00,29.1,27.1,00.0,38.2,30.9,12.4,0000.0,0017.40,0005.12,0004.04
2021-09-27 18:13:00,,0826.5,4.99,0.00,29.2,27.5,00.0,38.2,31.0,12.3,0000.0,0016.88,0005.10,0004.02
2021-09-27 18:14:00,,0826.5,5.01,0.00,29.2,27.8,00.0,38.2,31.1,12.3,0000.0,0016.76,0005.07,0004.01
2021-09-27 18:15:00,,0826.5,4.99,0.00,29.3,28.1,00.0,38.2,31.1,12.1,0000.0,0016.69,0005.12,0004.00
2021-09-27 18:16:00,,0826.5,5.00,0.00,29.3,27.7,00.0,38.2,31.0,12.3,0000.0,0016.48,0005.11,0004.00
2021-09-27 18:17:00,,0826.5,5.00,0.00,29.2,26.1,00.0,38.2,30.6,12.7,0000.0,0016.40,0005.06,0004.01
2021-09-27 18:18:00,,0826.5,5.00,0.00,29.1,25.9,00.0,38.2,30.5,12.6,0000.0,0015.74,0005.05,0003.99
2021-09-27 18:19:00,,0826.5,5.00,0.00,29.0,26.3,00.0,38.2,30.6,12.4,0000.0,0014.54,0005.00,0003.97
2021-09-27 18:20:00,,0826.4,5.00,0.00,29.0,26.7,00.0,38.1,30.7,12.7,0000.0,0013.18,0004.94,0003.96
2021-09-27 18:21:00,,0826.5,4.99,0.00,29.1,27.1,00.0,38.1,30.8,12.4,0000.0,0012.26,0004.84,0003.92
2021-09-27 18:22:00,,0826.4,5.02,0.00,29.1,27.5,00.0,38.1,30.9,12.9,0000.0,0012.52,0004.86,0003.92
2021-09-27 18:23:00,,0826.4,5.00,0.00,29.2,27.9,00.0,38.1,31.0,12.8,0000.0,0012.72,0004.87,0003.92
2021-09-27 18:24:00,,0826.4,4.99,0.00,29.2,28.2,00.0,38.1,31.1,12.9,0000.3,0013.22,0004.85,0003.92
2021-09-27 18:25:00,,0826.5,5.01,0.00,29.3,27.8,00.0,38.2,31.0,12.6,0000.5,0013.76,0004.89,0003.93
2021-09-27 18:26:00,,0826.5,5.00,0.00,29.2,26.2,00.0,38.2,30.6,12.9,0000.9,0013.80,0004.84,0003.94
2021-09-27 18:27:00,,0826.4,5.00,0.00,29.0,25.9,00.0,38.1,30.5,13.1,0000.0,0013.71,0004.82,0003.94
2021-09-27 18:28:00,,0826.4,5.00,0.00,29.0,26.3,00.0,38.1,30.6,13.2,0000.0,0014.13,0004.83,0003.93
2021-09-27 18:29:00,,0826.4,5.00,0.00,29.0,26.7,00.0,38.1,30.7,13.3,0000.9,0014.83,0004.86,0003.93
2021-09-27 18:30:00,,0826.4,4.99,0.00,29.0,27.2,00.0,38.1,30.8,13.3,0001.9,0015.19,0004.90,0003.95
2021-09-27 18:31:00,,0826.3,5.01,0.00,29.1,27.5,00.0,38.1,30.9,13.7,0001.7,0015.95,0004.94,0003.95
2021-09-27 18:32:00,,0826.3,5.00,0.00,29.1,27.9,00.0,38.1,31.0,13.7,0001.6,0017.26,0004.98,0003.98
2021-09-27 18:33:00,,0826.3,4.98,0.00,29.2,28.1,00.0,38.1,31.1,13.5,0001.1,0016.64,0005.00,0004.01
2021-09-27 18:34:00,,0826.3,5.01,0.00,29.3,28.3,00.0,38.1,31.1,13.5,0000.7,0017.21,0005.02,0004.02
2021-09-27 18:35:00,,0826.3,5.00,0.00,29.3,27.2,00.0,38.1,30.9,13.5,0000.3,0017.31,0005.09,0004.02
2021-09-27 18:36:00,,0826.3,4.99,0.00,29.1,25.8,00.0,38.1,30.4,13.6,0000.4,0016.93,0005.13,0004.03
2021-09-27 18:37:00,,0826.2,5.00,0.00,29.0,26.0,00.0,38.1,30.4,13.3,0000.6,0016.85,0005.16,0004.05
2021-09-27 18:38:00,,0826.2,5.00,0.00,29.0,26.4,00.0,38.1,30.6,13.6,0000.5,0017.45,0005.25,0004.07
2021-09-27 18:39:00,,0826.2,5.01,0.00,29.0,26.9,00.0,38.1,30.7,14.2,0000.5,0017.29,0005.32,0004.10
2021-09-27 18:40:00,,0826.2,4.99,0.00,29.0,27.3,00.0,38.1,30.8,14.4,0000.0,0016.98,0005.31,0004.12
2021-09-27 18:41:00,,0826.2,5.01,0.00,29.1,27.6,00.0,38.1,30.9,14.6,0000.9,0016.93,0005.29,0004.13
2021-09-27 18:42:00,,0826.2,4.99,0.00,29.1,27.9,00.0,38.1,31.0,14.1,0001.9,0016.66,0005.27,0004.15
2021-09-27 18:43:00,,0826.2,5.01,0.00,29.2,28.2,00.0,38.1,31.1,14.1,0001.9,0015.29,0005.24,0004.16
2021-09-27 18:44:00,,0826.2,4.99,0.00,29.2,27.3,00.0,38.1,30.9,13.8,0002.0,0014.90,0005.24,0004.16
2021-09-27 18:45:00,,0826.2,5.01,0.00,29.1,25.8,00.0,38.1,30.5,14.0,0003.0,0014.76,0005.26,0004.18
2021-09-27 18:46:00,,0826.2,5.00,0.00,29.0,26.0,00.0,38.1,30.5,13.9,0003.2,0014.85,0005.23,0004.20
2021-09-27 18:47:00,,0826.2,5.00,0.00,29.0,26.4,00.0,38.1,30.6,13.5,0003.3,0015.39,0005.21,0004.22
2021-09-27 18:48:00,,0826.2,4.99,0.00,29.0,26.8,00.0,38.0,30.7,13.5,0003.5,0015.20,0005.19,0004.23
2021-09-27 18:49:00,,0826.2,5.02,0.00,29.0,27.2,00.0,38.0,30.8,13.5,0003.5,0014.96,0005.16,0004.22
2021-09-27 18:50:00,,0826.2,4.99,0.00,29.1,27.6,00.0,38.0,30.9,13.6,0003.6,0015.14,0005.11,0004.20
2021-09-27 18:51:00,,0826.2,5.00,0.00,29.1,27.9,00.0,38.1,31.0,13.5,0003.6,0014.47,0005.07,0004.18
2021-09-27 18:52:00,,0826.1,5.00,0.00,29.2,28.2,00.0,38.1,31.1,13.6,0003.3,0014.68,0005.07,0004.16
2021-09-27 18:53:00,,0826.2,5.02,0.00,29.3,28.4,00.0,38.1,31.2,13.5,0003.1,0014.99,0005.08,0004.14
2021-09-27 18:54:00,,0826.2,4.99,0.00,29.3,27.7,00.0,38.1,31.0,13.4,0002.7,0016.50,0005.12,0004.12
2021-09-27 18:55:00,,0826.2,5.00,0.00,29.1,26.0,00.0,38.1,30.6,13.3,0002.5,0016.70,0005.11,0004.10
2021-09-27 18:56:00,,0826.2,5.01,0.00,29.0,26.0,00.0,38.1,30.5,13.6,0002.0,0015.99,0005.04,0004.07
2021-09-27 18:57:00,,0826.2,5.00,0.00,29.0,26.4,00.0,38.1,30.6,13.5,0001.7,0015.28,0005.04,0004.04
2021-09-27 18:58:00,,0826.2,4.99,0.00,29.0,26.8,00.0,38.1,30.7,13.4,0001.4,0014.54,0005.04,0004.02
2021-09-27 18:59:00,,0826.2,5.01,0.00,29.1,27.2,00.0,38.1,30.8,13.3,0001.3,0014.00,0005.06,0004.01
